NOAA 16 DEB

Satellite information

Favourite Embed

Satellite Type and Status

DEBRISIN ORBIT

Key statistics

Satellite NOAA 16 DEB at a glance.

Uptime

8995

Days in orbit

Revolutions

≈ 14.4

Per day

Orbit

SSO

Sun Synchronous Orbit

Inclination

98.9

Latest

Satellite identification and parameters

Extended collection of information and parameters for NOAA 16 DEB.

Object identification

Identified? True

Debris? True

Object name: NOAA 16 DEB

International designator: 2000-055PN

Object number (NORAD): 41708

Object ID (CCSDS): 41708

Country: UNITED STATES OF AMERICA (US)

Current information (Y/N): Y

RCS size: SMALL

Orbital parameters

Period: 100.141 minutes

Inclination: 98.8544 deg

SMA: 7143.346 km

Apoapsis: 773.746 km

Periapsis: 756.676 km

RAAN: 240.767 deg

Eccentricy: 0.0011948

Argument of periapsis: 252.4284 deg

Mean anomaly: 107.5597 deg

Mean motion: 14.37971398 rev/day

Mean motion (dot): 0.00010348 rev/day2

B* drag term: 0.0034309 1/REarth

Two-line elements (TLE)

Creation date: May 6, 2025, 3:54 a.m.

Reference frame: TEME

Reference center: EARTH

Epoch: May 5, 2025, 6:07 a.m. UTC

TLE line 0: 0 NOAA 16 DEB

TLE line 1: 1 41708U 00055PN 25125.25527714 .00010348 00000-0 34309-2 0 9995

TLE line 2: 2 41708 98.8544 240.7670 0011948 252.4284 107.5597 14.37971398468189

Live tracking on map

Real-time ground track for satellite NOAA 16 DEB.

In-orbit conjunctions

A list of the most updated potential collisions computed for object NOAA 16 DEB.

Target Orbit TCA Probability of collision Miss distance Type
COSMOS 2208 LEO 2025-03-17 22:01:39 0.0001655781 344.0 (m) PAYLOAD
COSMOS 773 LEO 2025-03-11 02:11:37 0.0002432995 345.0 (m) PAYLOAD
FEDSAT SSO 2024-10-01 17:50:21 0.000202173 869.0 (m) PAYLOAD

Associated space launch

The NOAA K, L and M POES satellites begin the fifth generation of improved environmental monitoring in support of NOAA missions. The instrument payload has significant improvements and additions/deletions. The instrument changes have effected the spacecraft subsystems and data formats.

NOAA 16 DEB was lifted into orbit during the mission ‘Titan II SLV | NOAA 16’, on board a Titan II SLV space rocket.

The launch took place on Sept. 21, 2000, 10:22 a.m. from Space Launch Complex 4W.

For more information about the launch, click the button.

Launch to space Titan II SLV | NOAA 16
Titan II SLV | NOAA 16

Agency: N/A

Status: Launch Successful

Launch date: Sept. 21, 2000, 10:22 a.m. UTC

Rocket: Titan II SLV

Launch pad: Space Launch Complex 4W

Location: Vandenberg SFB, CA, USA

...

Latest news about this satellite

There are no fresh news available about this satellite. Check back as we update our databases every day.


Newsletter sign-up

Weekly statistics, charts and insights to help you stay on top of the space industry.